[[{"header":{"parameterUnit":"m.s-1","parameterCategory":1,"la1":30.2991,"la2":30.254,"lo1":-89.0895,"lo2":-89.0444,"dy":0.0017,"dx":0.0017,"nx":28,"ny":28,"refTime":"2024-07-06T09:00:00:Z","depth":0,"parameterNumber":2,"parameterNumberName":"U-component_of_WINDS"},"data":[0,0,0,0,0,0,0,0,0,0,0,0,0,0,0,0,0,0,0,0,0,0,0,0,0,0,0,0,0,0,0,0,0,0,0,0,0,0,0,0,0,0,0,0,0,0,0,0,0,0,0,0,0,0,0,0,0,0,1.5459,1.5459,0,1.5468,1.5469,1.5469,1.5399,1.5397,1.5395,1.5393,1.5405,1.5407,1.5409,0,0,0,0,0,0,0,0,0,0,0,0,0,1.5385,1.5386,1.5459,1.5459,1.5459,1.5468,1.5469,1.5469,1.5399,1.5397,1.5395,1.5392,1.5404,1.5407,1.5409,0,0,0,0,0,0,0,0,0,0,0,0,0,1.5408,1.5387,1.5459,1.5426,1.5423,1.5468,1.5469,1.5469,1.54,1.5397,1.5394,1.5391,1.5403,1.5407,1.541,1.5488,0,0,1.542,1.5421,0,0,0,0,0,0,0,0,1.5407,1.5411,1.543,1.5428,1.5425,1.5429,1.5447,1.5475,1.5401,1.5409,1.5393,1.539,1.5416,1.5418,1.5426,1.5489,1.5489,1.542,1.5422,1.5423,1.5424,0,0,0,0,0,0,0,1.5405,1.541,1.5463,1.5431,1.5428,1.5412,1.5412,1.5452,1.5429,1.5408,1.5403,1.5405,1.5414,1.5423,1.5426,1.549,1.542,1.5423,1.5425,1.5426,1.5621,1.5624,0,0,0,0,0,0,1.5408,1.5409,1.5462,1.5463,1.5408,1.5415,1.5415,1.5431,1.5428,1.5425,1.5407,1.5401,1.5419,1.5422,1.5426,1.5519,1.5423,1.5426,1.5428,1.5617,1.5621,1.5625,0,0,0,0,0,0,1.5406,1.5413,1.5462,1.5435,1.544,1.542,1.5438,1.5433,1.5442,1.5427,1.5423,1.5421,1.5417,1.5421,1.5474,1.5518,1.5428,1.5431,1.5614,1.5619,1.5623,1.5705,0,0,0,0,0,0,1.5404,1.5413,1.5441,1.5436,1.5441,1.5509,1.5441,1.5435,1.5447,1.544,1.5439,1.5436,1.5415,1.5469,1.5477,1.5521,1.5433,1.5609,1.5616,1.5622,1.5698,1.5712,1.5724,0,0,0,0,0,1.5402,1.5464,1.5443,1.545,1.5476,1.5511,1.5514,1.5488,1.5451,1.548,1.5472,1.5436,1.5513,1.5475,1.5483,1.5529,1.5606,1.5614,1.5621,1.5692,1.5709,1.5723,0,0,0,0,0,0,1.5474,1.5462,1.5439,1.5501,1.5508,1.5499,1.5535,1.5506,1.5524,1.5516,1.5484,1.5484,1.5543,1.5541,1.55,1.5606,1.5553,1.5563,1.5605,1.562,1.5633,1.5632,1.5436,0,0,0,0,0,1.5498,1.5526,1.5514,1.557,1.5575,1.5555,1.5569,1.5548,1.5554,1.5557,1.5552,1.556,1.5586,1.5603,1.5626,1.5698,1.5698,1.5734,1.5747,1.5757,1.5765,1.5806,1.5822,1.5649,1.5649,1.5649,0,0,1.5545,1.5542,1.5562,1.5585,1.5587,1.5619,1.5557,1.5592,1.5616,1.5562,1.5611,1.5609,1.5616,1.5679,1.5706,1.5679,1.5814,1.5767,1.5775,1.5777,1.5815,1.5831,1.5846,1.5654,1.5653,1.5652,0,0,1.5648,1.5649,1.5696,1.5701,1.5706,1.5693,1.5705,1.5702,1.5698,1.5747,1.5708,1.5737,1.5782,1.5789,1.5798,1.5909,1.5878,1.5918,1.5984,1.6024,1.6037,1.6049,1.609,1.6104,1.5926,1.5927,1.5927,0,1.5707,1.5752,1.5724,1.5762,1.5774,1.5728,1.5777,1.5783,1.5796,1.5806,1.5776,1.5833,1.5835,1.59,1.5927,1.5936,1.595,1.5917,1.6038,1.6049,1.606,1.6098,1.6113,1.5931,1.5931,1.593,1.593,0,1.5824,1.5857,1.5894,1.5908,1.5925,1.5968,1.5948,1.5969,1.5948,1.5939,1.5992,1.5992,1.6016,1.603,1.601,1.6093,1.6077,1.6043,1.5989,1.6082,1.6117,1.6131,1.5938,1.5937,1.5935,1.5934,0,0,1.5969,1.597,1.5984,1.5991,1.5996,1.6021,1.6065,1.6087,1.6106,1.6118,1.6154,1.6195,1.6165,1.6176,1.6157,1.6192,1.6281,1.6154,1.6154,1.6178,1.6375,1.64,1.6417,1.6261,1.6264,1.6266,1.6374,0,1.607,1.6141,1.612,1.6192,1.6223,1.6182,1.622,1.6228,1.6222,1.6248,1.6242,1.6272,1.6229,1.6236,1.6269,1.6263,1.632,1.6255,1.6295,1.6297,1.6293,1.6435,1.646,1.6562,1.6388,1.639,1.6392,0,1.6195,1.6213,1.6289,1.6292,1.6304,1.6338,1.6359,1.6384,1.6394,1.6387,1.6402,1.6377,1.6421,1.6369,1.643,1.6387,1.6403,1.6403,1.6407,1.6408,1.6349,1.644,1.6594,1.6609,1.6413,1.6411,1.641,0,1.6293,1.6337,1.6388,1.6396,1.64,1.6425,1.6428,1.6435,1.6452,1.6471,1.6481,1.6506,1.6519,1.6539,1.6523,1.6486,1.6588,1.6533,1.6584,1.6585,1.6606,1.6604,1.6764,1.6618,1.6618,1.6618,1.6617,0,1.6407,1.6455,1.6433,1.6464,1.6518,1.6494,1.6549,1.6548,1.6555,1.6587,1.6554,1.6585,1.6562,1.6592,1.658,1.6633,1.664,1.6637,1.6633,1.6639,1.6639,1.6647,1.664,1.6622,1.6621,1.662,1.6619,0,1.6524,1.6511,1.6564,1.6566,1.6567,1.6607,1.6608,1.6639,1.6632,1.6673,1.6682,1.6671,1.6705,1.6691,1.6727,1.6719,1.6788,1.6775,1.6784,1.678,1.6832,1.6828,1.7001,1.7023,1.6864,1.6866,1.6867,0,1.6596,1.6632,1.6638,1.6658,1.6663,1.6694,1.6711,1.6691,1.671,1.6727,1.6756,1.6787,1.681,1.6867,1.6863,1.6891,1.6878,1.6938,1.6882,1.6888,1.6879,1.6877,1.6881,1.6948,1.695,1.6951,1.6953,0,1.6726,1.6719,1.6744,1.6769,1.6791,1.6809,1.6824,1.6842,1.6823,1.6847,1.6881,1.69,1.6938,1.6969,1.6995,1.7,1.6974,1.6971,1.6984,1.699,1.6994,1.6993,1.6814,1.6966,1.6965,1.6964,1.6963,1.6963,1.6822,1.6854,1.6864,1.6894,1.6905,1.6921,1.695,1.6948,1.6976,1.7005,1.6992,1.7032,1.7045,1.7077,1.7086,1.7119,1.7095,1.7115,1.7119,1.7124,1.7131,1.699,1.7123,1.7123,1.7123,1.7122,1.7122,0,1.695,1.6956,1.6984,1.7008,1.7033,1.7008,1.7025,1.7047,1.7083,1.7097,1.7122,1.7163,1.7195,1.7195,1.7226,1.7252,1.7241,1.726,1.7258,1.726,1.715,1.7135,1.7269,1.7269,1.7269,1.7269,1.7269,1.7269,1.702,1.7072,1.7067,1.7125,1.7131,1.717,1.7182,1.7198,1.7209,1.7256,1.7283,1.7283,1.7293,1.7324,1.7353,1.7353,1.7366,1.739,1.7385,1.7282,1.7267,1.7253,1.7239,1.7393,1.7393,1.7492,1.7493,1.7494]},{"header":{"parameterUnit":"m.s-1","parameterCategory":1,"la1":30.2991,"la2":30.254,"lo1":-89.0895,"lo2":-89.0444,"dy":0.0017,"dx":0.0017,"nx":28,"ny":28,"refTime":"2024-07-06T09:00:00:Z","depth":0,"parameterNumber":3,"parameterNumberName":"V-component_of_WINDS"},"data":[0,0,0,0,0,0,0,0,0,0,0,0,0,0,0,0,0,0,0,0,0,0,0,0,0,0,0,0,0,0,0,0,0,0,0,0,0,0,0,0,0,0,0,0,0,0,0,0,0,0,0,0,0,0,0,0,0,0,-1.1022,-1.102,0,-1.0788,-1.0786,-1.0783,-1.0723,-1.0725,-1.0726,-1.0728,-1.0482,-1.0475,-1.0467,0,0,0,0,0,0,0,0,0,0,0,0,0,-1.1406,-1.14,-1.1022,-1.1019,-1.1017,-1.0789,-1.0786,-1.0782,-1.0723,-1.0725,-1.0727,-1.0728,-1.0485,-1.0475,-1.0466,0,0,0,0,0,0,0,0,0,0,0,0,0,-1.1213,-1.1398,-1.1023,-1.096,-1.0952,-1.0789,-1.0785,-1.0781,-1.0723,-1.0725,-1.0727,-1.0729,-1.0488,-1.0476,-1.0465,-1.0347,0,0,-1.0428,-1.0423,0,0,0,0,0,0,0,0,-1.1224,-1.1199,-1.0972,-1.0964,-1.0955,-1.0787,-1.0831,-1.0636,-1.0722,-1.0809,-1.0728,-1.073,-1.0582,-1.0562,-1.0513,-1.0335,-1.0325,-1.0427,-1.042,-1.0415,-1.0412,0,0,0,0,0,0,0,-1.1237,-1.1208,-1.093,-1.0969,-1.0958,-1.0939,-1.0914,-1.0794,-1.0686,-1.0802,-1.0797,-1.0771,-1.0577,-1.0525,-1.0507,-1.0321,-1.0428,-1.0417,-1.041,-1.0405,-1.0026,-1.0023,0,0,0,0,0,0,-1.1263,-1.122,-1.0937,-1.0923,-1.1098,-1.0931,-1.0903,-1.0839,-1.0687,-1.0666,-1.0769,-1.0769,-1.0544,-1.0521,-1.0498,-1.0344,-1.0415,-1.0404,-1.0397,-1.0029,-1.0025,-1.0022,0,0,0,0,0,0,-1.1271,-1.1238,-1.0946,-1.107,-1.1031,-1.0922,-1.085,-1.0833,-1.0781,-1.0662,-1.0642,-1.0736,-1.0545,-1.0515,-1.0383,-1.0335,-1.0399,-1.0388,-1.0032,-1.0028,-1.0024,-1.004,0,0,0,0,0,0,-1.1283,-1.1242,-1.1199,-1.1069,-1.1025,-1.0839,-1.0848,-1.0827,-1.0761,-1.0758,-1.0626,-1.0606,-1.0544,-1.0401,-1.0372,-1.032,-1.0379,-1.0036,-1.003,-1.0025,-1.0044,-1.0037,-1.0031,0,0,0,0,0,-1.1297,-1.1214,-1.1197,-1.1163,-1.097,-1.0837,-1.0811,-1.0744,-1.0758,-1.0711,-1.0633,-1.061,-1.0346,-1.0389,-1.0354,-1.0299,-1.0039,-1.0032,-1.0025,-1.0046,-1.0038,-1.0032,0,0,0,0,0,0,-1.134,-1.1196,-1.1176,-1.1049,-1.0956,-1.0827,-1.0767,-1.0739,-1.0638,-1.064,-1.0558,-1.0529,-1.0401,-1.0337,-1.0387,-1.0172,-1.0192,-1.0178,-1.0219,-1.0211,-1.0205,-1.0222,-1.0369,0,0,0,0,0,-1.1335,-1.1242,-1.112,-1.1019,-1.0973,-1.0878,-1.0818,-1.0774,-1.0673,-1.0632,-1.0546,-1.0447,-1.034,-1.0272,-1.0169,-1.0034,-1.0001,-0.9978,-0.9972,-0.9968,-0.9956,-0.9873,-0.986,-1.0,-1.0,-1.0,0,0,-1.1324,-1.1233,-1.1179,-1.1025,-1.0948,-1.0849,-1.0845,-1.0743,-1.0667,-1.0616,-1.0486,-1.0418,-1.0301,-1.0166,-1.0102,-1.0109,-0.991,-0.9959,-0.9957,-0.9947,-0.9865,-0.9852,-0.984,-0.9996,-0.9997,-0.9997,0,0,-1.1251,-1.1176,-1.108,-1.1002,-1.0884,-1.082,-1.0797,-1.0671,-1.0624,-1.0492,-1.045,-1.0357,-1.0178,-1.0094,-1.0028,-0.9917,-0.9888,-0.9885,-0.9853,-0.9773,-0.9761,-0.9751,-0.9706,-0.9691,-0.9874,-0.9874,-0.9874,0,-1.1251,-1.1103,-1.1035,-1.0932,-1.0862,-1.0812,-1.0711,-1.0638,-1.0491,-1.0443,-1.0452,-1.0222,-1.014,-0.9981,-0.9953,-0.9904,-0.987,-0.9899,-0.9769,-0.9758,-0.9747,-0.9703,-0.9687,-0.9874,-0.9874,-0.9874,-0.9874,0,-1.1106,-1.1003,-1.094,-1.0799,-1.0723,-1.0622,-1.0533,-1.0463,-1.0424,-1.0358,-1.022,-1.012,-0.9991,-0.9951,-0.9913,-0.9784,-0.9791,-0.9786,-0.9803,-0.9735,-0.9692,-0.9675,-0.9874,-0.9874,-0.9874,-0.9874,0,0,-1.1057,-1.0876,-1.0853,-1.0785,-1.0649,-1.0566,-1.046,-1.0335,-1.0274,-1.0173,-1.0078,-0.9925,-0.9917,-0.9842,-0.9793,-0.9723,-0.9633,-0.9726,-0.9721,-0.9708,-0.9478,-0.9481,-0.9463,-0.9615,-0.9611,-0.9609,-0.9487,0,-1.0964,-1.0775,-1.0707,-1.0549,-1.0449,-1.0397,-1.0303,-1.0206,-1.014,-1.0043,-0.9968,-0.9859,-0.986,-0.9813,-0.9742,-0.966,-0.9586,-0.9668,-0.9521,-0.9517,-0.9549,-0.9441,-0.9444,-0.9334,-0.947,-0.9467,-0.9465,0,-1.0832,-1.0728,-1.0561,-1.0429,-1.0385,-1.0303,-1.0179,-1.0088,-0.9975,-0.9931,-0.9844,-0.9798,-0.9679,-0.9705,-0.9537,-0.9594,-0.9529,-0.9479,-0.9473,-0.9454,-0.9485,-0.9415,-0.9298,-0.928,-0.9439,-0.9441,-0.9443,0,-1.0807,-1.0625,-1.0499,-1.0444,-1.029,-1.0231,-1.0164,-1.0053,-0.998,-0.9871,-0.9821,-0.97,-0.9632,-0.9537,-0.9457,-0.9484,-0.9294,-0.9315,-0.925,-0.9251,-0.9211,-0.9214,-0.9078,-0.9175,-0.9176,-0.9176,-0.9176,0,-1.0708,-1.0607,-1.0485,-1.0408,-1.029,-1.021,-1.0094,-1.0023,-0.9923,-0.9827,-0.9774,-0.9685,-0.9587,-0.9483,-0.9419,-0.9286,-0.9257,-0.9215,-0.9198,-0.9217,-0.9222,-0.9172,-0.9176,-0.9171,-0.9172,-0.9173,-0.9174,0,-1.0661,-1.0576,-1.0434,-1.0298,-1.0261,-1.018,-1.0061,-0.9981,-0.9911,-0.9789,-0.9756,-0.9644,-0.9519,-0.943,-0.9269,-0.9226,-0.908,-0.9067,-0.9119,-0.911,-0.9049,-0.9054,-0.8873,-0.8842,-0.8965,-0.8963,-0.8963,0,-1.0603,-1.0522,-1.0376,-1.0308,-1.0241,-1.0133,-1.0057,-0.9973,-0.9895,-0.9756,-0.9691,-0.9562,-0.9454,-0.9255,-0.9157,-0.9032,-0.9012,-0.8957,-0.8993,-0.9012,-0.9005,-0.9009,-0.8998,-0.8951,-0.895,-0.8949,-0.8949,0,-1.0506,-1.0466,-1.036,-1.0237,-1.0148,-1.0047,-0.9945,-0.9892,-0.9789,-0.9703,-0.9574,-0.949,-0.9323,-0.9193,-0.9057,-0.8983,-0.8946,-0.8938,-0.8915,-0.8932,-0.8964,-0.8941,-0.91,-0.8942,-0.8943,-0.8943,-0.8944,-0.8944,-1.0447,-1.0371,-1.0255,-1.0136,-1.005,-0.9954,-0.987,-0.9788,-0.9679,-0.9537,-0.9493,-0.9358,-0.9239,-0.9052,-0.8976,-0.8865,-0.8868,-0.8837,-0.8828,-0.8821,-0.8819,-0.8984,-0.8841,-0.8841,-0.8841,-0.8841,-0.8841,0,-1.0344,-1.0265,-1.0157,-1.0014,-0.9919,-0.9894,-0.9778,-0.9699,-0.9581,-0.9474,-0.9367,-0.9215,-0.9087,-0.8978,-0.8844,-0.8776,-0.8755,-0.8743,-0.8746,-0.8728,-0.8827,-0.8857,-0.8762,-0.8762,-0.8762,-0.8762,-0.8762,-0.8762,-1.0279,-1.0146,-1.0092,-0.9913,-0.9834,-0.9701,-0.9636,-0.9545,-0.9458,-0.9291,-0.9184,-0.9114,-0.9004,-0.8861,-0.874,-0.8711,-0.8662,-0.8653,-0.8619,-0.8713,-0.8722,-0.8731,-0.8759,-0.8644,-0.8644,-0.8529,-0.8528,-0.8527]}]]